Temperature
19 19 19 19 19 19 19 19 19 19 19 19 19 19 19 18 18 18 18 18 18 18 18 18 18 18 18 18 18 18 18 18 18 18 18 17 17 17 17 17 17 17 17
20 19 19 20 19 19 19 19 19 19 19 19 19 19 19 19 18 18 18 18 18 18 18 18 18 18 18 18 18 18 18 18 18 17 17 17 17 17 17 17 17 17 17
20 20 19 20 19 19 19 19 19 19 19 19 18 18 18 18 18 18 18 18 18 18 18 18 18 18 18 18 18 18 17 17 17 17 17 17 17 17 17 17 17 17 17
20 20 20 20 19 19 19 19 19 19 19 18 18 18 18 18 18 18 18 18 18 18 18 18 18 18 18 18 17 17 17 17 17 17 17 17 17 17 17 17 17 17 17
20 20 20 20 20 19 19 19 19 19 19 18 18 18 18 18 18 18 18 18 18 18 18 18 18 18 18 17 17 17 17 17 17 17 17 17 17 17 17 17 17 17 17
20 20 20 20 20 19 19 19 19 19 18 18 18 18 18 18 18 18 18 18 18 18 18 18 18 18 18 17 17 17 17 17 17 17 17 17 17 17 17 17 17 17 17
21 20 20 20 20 20 19 19 19 19 19 18 18 18 18 18 18 18 18 18 18 18 18 18 18 18 17 17 17 17 17 17 17 17 17 17 17 17 17 17 17 17 17
21 20 20 20 20 20 19 19 19 19 19 19 18 18 18 18 18 18 18 18 18 18 18 18 18 18 17 17 17 17 17 17 17 17 17 17 17 17 17 17 17 17 17
21 21 20 20 20 20 20 19 19 19 19 19 19 18 18 18 18 18 18 18 18 18 18 18 18 18 18 17 17 17 17 17 17 17 18 18 18 17 17 17 17 17 17
21 21 20 20 20 20 20 19 19 19 19 19 19 19 18 18 18 18 18 18 18 18 18 18 18 18 18 17 17 17 17 17 18 18 18 18 18 17 17 17 17 17 17
21 20 20 20 20 20 20 19 19 19 19 19 19 18 18 18 18 18 18 18 18 18 18 18 18 18 18 18 17 17 17 18 18 18 18 18 18 18 17 17 17 17 17
21 20 20 20 20 20 20 19 19 19 19 19 19 18 18 18 18 18 18 18 18 18 18 18 18 18 18 18 17 17 17 18 18 18 18 18 18 18 17 17 17 17 17
21 20 20 20 20 20 19 19 19 19 19 19 18 18 18 18 18 18 18 18 18 18 18 18 18 18 18 18 18 18 18 18 18 18 18 18 18 18 18 17 17 17 17
21 21 20 20 20 20 19 19 19 19 19 19 19 18 18 18 18 18 18 18 18 18 18 18 18 18 18 18 18 18 18 18 18 18 18 18 18 18 18 17 17 17 17
21 21 21 20 20 20 19 19 19 19 19 19 19 18 18 18 18 18 18 18 18 18 18 18 18 18 18 18 18 18 18 18 18 18 18 18 18 18 18 18 17 17 17
21 21 21 20 20 20 20 19 19 19 19 19 19 19 18 18 18 18 18 18 18 18 18 18 18 18 18 18 18 18 18 18 18 18 18 18 18 18 18 18 18 17 17
21 21 21 21 20 20 20 19 19 19 19 19 19 19 19 18 18 18 18 18 18 18 18 18 18 18 18 18 18 18 18 18 18 18 18 18 18 18 17 17 17 17 17
22 21 21 21 20 20 20 20 19 19 19 19 19 19 19 19 18 18 18 18 18 18 18 18 18 18 18 18 18 18 18 18 18 18 18 18 18 18 17 17 17 17 17
22 22 21 21 20 20 20 20 19 19 19 19 19 19 19 19 19 18 18 18 18 18 18 18 18 18 18 18 18 18 18 18 18 18 18 18 18 18 18 17 17 17 17
22 22 21 21 21 20 20 20 20 19 19 19 19 19 19 19 19 18 18 18 18 18 18 18 18 18 18 18 18 18 18 18 18 18 18 18 18 18 18 18 17 17 17
22 22 21 21 21 20 20 20 20 19 19 19 19 19 18 18 18 18 18 18 18 18 18 18 18 18 18 18 18 18 18 18 18 18 18 18 18 18 18 18 18 17 17
22 22 21 21 21 20 20 20 20 20 19 19 19 19 18 18 18 18 18 18 18 18 18 18 18 18 18 18 18 18 18 18 18 18 18 18 18 18 18 18 18 17 18
22 22 21 21 21 20 20 20 19 19 19 19 19 19 19 19 18 18 18 18 18 18 18 18 18 18 18 18 18 18 18 18 18 18 18 18 18 18 18 18 18 17 18
22 22 22 21 21 20 20 20 20 20 19 19 19 19 19 18 18 18 18 18 18 18 18 18 18 18 18 18 18 18 18 17 17 18 18 18 18 18 18 18 18 18 17
22 22 21 21 21 20 20 20 19 19 19 19 19 19 19 18 18 18 18 18 18 18 18 18 18 18 18 18 18 18 17 17 17 17 17 18 18 18 18 18 18 17 17
22 22 21 21 21 20 20 20 19 19 19 19 19 19 19 18 18 18 18 18 18 18 18 18 18 17 17 17 17 17 17 17 17 17 17 17 17 17 17 17 17 17 17
Wind_Speed
4 9 15 16 17 17 17 18 18 19 19 19 19 19 19 19 19 19 18 18 18 18 18 18 18 18 19 19 19 20 20 20 20 20 19 19 19 19 19 19 18 17 19
9 12 16 16 17 17 17 17 17 17 17 18 18 18 18 18 18 18 17 17 17 17 17 17 18 18 18 19 19 19 20 20 19 19 18 18 18 18 18 18 17 16 18
11 14 16 16 16 16 16 16 16 16 16 16 16 17 17 17 17 17 17 17 17 17 16 17 17 17 17 18 18 18 18 18 18 18 17 15 16 17 18 18 18 17 17
13 14 16 17 16 16 16 15 16 16 16 16 15 16 16 16 16 16 16 16 16 16 15 16 16 16 16 16 16 16 16 16 17 16 14 14 14 17 17 17 17 17 16
12 14 17 17 17 16 15 15 15 15 15 15 15 15 15 15 15 15 15 15 15 15 14 15 15 15 15 14 14 13 13 14 15 14 13 14 14 16 16 16 16 16 15
10 14 17 17 17 16 15 15 15 15 14 14 14 15 14 14 15 15 15 14 14 14 13 13 13 13 13 13 12 11 11 13 13 14 14 14 13 15 16 15 15 15 14
10 13 16 17 16 16 15 15 14 14 14 14 14 14 14 14 14 14 14 14 14 13 12 12 11 11 11 10 9 9 10 12 14 13 13 13 13 15 15 14 14 14 14
12 12 15 16 16 15 15 14 14 14 14 14 14 14 14 14 13 13 13 13 12 12 11 10 10 9 8 8 7 8 10 12 14 13 12 12 14 14 14 14 13 13 13
13 12 11 14 14 15 15 14 14 13 13 13 13 13 13 13 13 12 12 12 11 11 9 9 8 7 6 5 6 8 10 13 13 12 12 11 14 14 14 13 13 13 13
10 9 10 11 11 12 13 14 14 13 13 13 12 13 12 12 12 12 11 10 10 9 8 7 6 4 3 3 4 7 9 12 12 12 11 12 14 14 14 13 13 12 12
11 8 8 9 10 11 11 12 13 13 12 12 11 12 11 10 10 10 10 10 9 8 6 5 4 2 1 1 1 4 8 9 11 10 11 13 15 14 14 13 13 12 12
12 11 9 9 10 11 10 11 10 10 10 10 9 9 9 9 8 8 9 9 8 7 5 4 2 1 1 2 2 3 7 10 10 10 11 15 15 14 13 13 12 12 12
15 13 11 10 11 10 7 9 8 8 9 8 9 9 9 8 7 7 7 6 6 5 4 3 3 3 3 3 2 2 7 8 9 9 12 15 15 14 14 13 13 12 12
14 13 12 11 10 10 10 8 8 7 7 7 9 10 9 6 6 6 6 6 6 5 5 4 4 5 5 5 4 4 6 8 10 10 13 15 16 15 14 14 13 13 12
12 12 12 11 10 9 8 7 7 7 7 8 9 11 11 7 5 6 6 7 7 7 6 5 5 4 4 4 4 5 6 9 11 12 12 15 16 16 15 15 14 13 13
12 12 10 10 10 9 7 5 6 8 9 9 9 10 12 10 8 6 5 5 6 8 8 6 5 3 3 2 2 4 7 9 10 12 12 14 16 16 16 16 15 15 14
12 11 11 10 8 8 7 6 6 7 9 7 8 10 11 11 9 7 4 4 6 7 7 5 3 3 2 1 2 2 4 7 9 11 12 13 14 16 17 17 16 15 15
12 11 11 11 9 7 6 5 5 7 8 8 9 10 10 10 10 7 4 4 6 5 4 3 2 2 1 1 1 2 2 4 7 9 11 12 13 13 16 18 17 17 16
13 12 10 9 9 7 6 5 4 5 5 7 8 8 9 10 9 6 4 4 5 3 2 3 2 3 2 2 2 2 2 2 4 8 9 11 13 13 14 16 18 18 17
11 11 10 9 9 7 5 3 2 2 2 5 6 7 9 9 9 7 4 4 4 2 2 2 2 2 3 3 3 2 3 3 3 4 7 9 11 13 14 14 15 16 18
10 10 10 9 8 6 4 4 3 2 2 2 4 7 9 8 8 6 3 3 3 3 4 4 2 2 2 2 0 2 3 3 4 5 5 5 7 11 12 13 12 12 13
11 10 9 9 8 7 5 4 3 3 2 2 2 4 8 8 7 6 4 4 4 3 4 3 3 2 2 2 3 1 3 4 3 4 4 5 6 7 8 11 12 13 13
11 11 10 9 8 8 6 4 2 2 0 0 1 2 4 7 8 7 6 5 4 4 4 4 4 4 3 2 3 4 3 3 3 3 3 4 4 4 5 8 12 13 13
11 10 9 9 8 7 7 6 5 4 4 4 3 3 3 6 6 7 5 5 4 4 4 4 4 4 4 3 2 3 4 4 2 2 3 2 3 4 4 6 6 9 11
10 10 9 8 7 7 7 7 6 4 3 2 2 3 3 3 4 5 5 4 4 4 4 4 3 4 3 4 3 2 2 2 3 3 3 3 2 2 2 3 3 5 9
9 9 9 8 7 7 7 7 7 6 4 3 2 2 2 2 2 3 4 3 3 3 4 4 4 4 4 4 4 3 3 3 3 3 4 4 3 2 2 2 2 2 5
Wind_Direction
126 124 116 111 106 103 101 99 97 96 95 95 96 97 98 99 99 99 99 99 99 98 98 98 98 100 102 104 106 108 109 109 110 111 112 113 115 115 113 112 111 111 113
139 129 120 115 110 107 104 103 101 99 98 98 99 100 101 102 101 101 101 101 100 100 100 100 100 102 103 105 107 109 110 110 111 111 110 112 114 115 115 115 114 116 114
128 126 123 119 114 111 109 107 104 102 102 101 102 103 103 104 103 103 103 103 102 102 102 102 103 103 104 107 109 110 111 112 111 110 108 107 112 115 116 117 116 115 115
128 126 125 122 118 115 113 111 109 107 105 104 105 106 106 106 105 105 105 105 105 105 104 104 105 104 104 106 108 110 113 115 115 113 109 109 113 117 117 117 117 117 116
125 127 129 125 121 118 116 114 112 111 109 108 108 108 108 108 108 108 108 107 107 107 106 106 107 105 105 105 104 106 111 117 115 113 109 109 114 120 120 120 121 121 121
124 130 132 128 125 123 120 118 117 116 114 113 112 111 112 112 112 111 111 110 109 109 109 107 107 106 105 103 101 101 108 116 112 112 112 114 120 124 124 123 124 124 124
129 132 134 132 130 128 126 124 123 121 120 118 117 116 116 116 115 116 115 114 113 112 111 110 109 107 105 101 97 96 109 118 119 119 118 120 124 126 126 126 126 126 126
138 136 138 137 135 133 131 130 129 126 125 123 122 120 120 121 120 120 119 119 118 116 115 114 112 108 104 98 91 94 111 124 127 128 127 129 131 130 131 131 131 131 131
139 137 137 140 139 137 136 135 134 132 130 129 128 127 126 126 126 126 125 125 124 122 121 120 118 114 106 95 90 94 109 126 130 133 136 137 138 138 138 138 138 138 139
141 142 140 138 140 139 139 140 139 137 136 135 133 134 133 133 133 133 132 133 133 131 130 128 127 123 107 91 91 100 114 128 134 138 141 148 148 146 145 146 147 146 145
149 152 150 148 149 148 147 146 146 144 144 143 142 142 141 140 139 142 145 145 144 143 142 142 142 143 98 46 62 102 119 133 139 142 152 156 155 153 153 153 153 153 151
162 168 165 162 163 163 158 151 154 153 154 154 155 155 155 157 157 157 160 159 157 157 162 172 187 231 289 317 348 93 127 138 146 153 162 163 162 161 160 161 161 160 159
168 170 171 170 171 171 157 158 166 165 166 171 173 172 166 165 166 163 163 168 170 176 190 215 230 253 266 278 282 169 153 154 157 162 170 171 169 168 168 169 171 170 169
166 171 170 171 173 173 164 169 171 170 174 179 183 180 169 164 167 169 176 181 188 196 205 222 231 240 247 259 256 195 168 166 165 169 174 177 177 177 177 177 179 179 179
159 161 165 164 164 164 162 172 173 179 182 184 182 183 175 169 172 177 190 196 202 204 206 216 229 234 237 238 220 183 168 167 169 173 180 184 184 184 184 185 187 188 188
159 158 161 158 159 157 161 165 168 181 183 181 183 183 181 179 178 178 186 198 208 211 211 213 218 221 233 216 199 177 170 170 175 177 184 191 193 192 191 192 194 196 196
157 156 159 160 158 157 157 161 162 171 175 179 182 184 181 180 179 178 179 190 206 208 205 204 214 208 215 201 216 206 177 178 179 186 189 193 198 202 202 201 202 202 203
157 158 164 165 160 160 157 155 154 161 169 177 181 180 177 179 178 171 176 196 207 202 190 177 189 193 228 222 228 248 209 189 186 193 193 197 201 206 211 211 209 208 209
163 162 164 161 163 165 163 161 155 154 163 174 179 181 179 178 179 173 183 205 206 187 180 196 189 182 204 231 237 239 232 212 204 199 198 204 207 211 210 215 215 215 215
165 163 163 161 167 165 159 146 132 128 155 166 173 184 183 182 182 177 185 206 197 175 189 194 201 202 199 212 244 258 247 231 220 212 208 207 212 217 213 213 216 220 223
161 162 164 163 168 163 158 157 158 179 193 184 186 186 186 189 188 183 186 195 190 195 204 201 199 217 229 187 130 313 300 266 244 233 218 207 212 214 210 211 213 216 222
168 168 167 167 168 171 175 170 166 165 186 198 193 191 196 196 197 200 192 201 202 201 207 207 199 205 233 181 160 161 317 325 297 246 222 217 219 213 209 212 211 215 217
170 173 175 173 172 175 168 152 140 111 71 189 208 206 212 204 203 206 202 203 206 198 208 218 205 197 221 229 186 167 184 241 296 312 257 230 216 210 210 210 213 219 217
177 173 170 170 172 175 166 162 163 170 190 212 204 203 218 213 206 205 203 204 208 203 209 223 211 201 198 220 228 215 201 185 200 291 310 285 247 229 221 215 210 210 213
173 169 168 166 171 172 171 170 168 178 196 206 196 195 218 225 215 210 211 205 206 209 214 219 219 212 206 208 210 215 219 220 206 206 262 296 314 273 237 219 199 200 210
168 166 164 167 177 176 172 170 175 181 186 191 202 204 224 238 237 230 209 210 212 212 212 212 221 220 219 217 216 208 199 204 211 202 227 246 258 278 278 260 214 192 204
Height
1543 1543 1544 1544 1544 1544 1543 1543 1543 1544 1544 1544 1545 1545 1545 1546 1546 1546 1547 1547 1548 1548 1549 1550 1550 1551 1552 1552 1553 1554 1554 1555 1556 1557 1558 1559 1560 1561 1562 1563 1563 1564 1565
1543 1544 1545 1545 1546 1546 1546 1546 1546 1546 1546 1547 1547 1547 1548 1548 1549 1549 1549 1550 1551 1551 1552 1552 1553 1553 1554 1555 1555 1556 1557 1558 1559 1559 1560 1561 1562 1563 1564 1565 1565 1566 1567
1544 1545 1547 1547 1547 1548 1548 1548 1548 1548 1549 1549 1550 1550 1550 1551 1551 1552 1552 1553 1553 1553 1554 1555 1555 1556 1557 1557 1558 1559 1560 1561 1561 1562 1563 1563 1564 1565 1566 1567 1567 1568 1569
1545 1547 1548 1549 1549 1550 1550 1550 1550 1551 1551 1552 1552 1552 1553 1553 1554 1554 1555 1555 1555 1556 1557 1557 1558 1558 1559 1560 1561 1561 1562 1563 1564 1564 1565 1566 1566 1567 1568 1569 1569 1570 1571
1547 1548 1549 1550 1551 1551 1552 1552 1552 1553 1553 1554 1554 1555 1555 1555 1556 1556 1557 1557 1558 1558 1559 1560 1560 1561 1562 1562 1563 1564 1565 1565 1566 1566 1567 1568 1568 1569 1570 1570 1571 1572 1573
1548 1549 1550 1551 1552 1553 1553 1554 1554 1555 1555 1556 1556 1557 1557 1557 1558 1559 1559 1560 1560 1561 1561 1562 1562 1563 1564 1565 1566 1566 1567 1567 1568 1568 1569 1570 1570 1571 1572 1572 1573 1574 1575
1549 1550 1552 1552 1553 1554 1554 1555 1556 1556 1557 1557 1558 1558 1559 1559 1560 1561 1561 1562 1562 1563 1564 1564 1565 1566 1566 1567 1568 1568 1568 1569 1570 1570 1571 1572 1572 1573 1573 1574 1575 1576 1576
1550 1551 1553 1554 1554 1555 1556 1556 1557 1558 1558 1559 1559 1560 1561 1561 1562 1563 1563 1564 1564 1565 1566 1566 1567 1568 1569 1570 1570 1570 1570 1571 1572 1572 1573 1573 1574 1574 1575 1576 1576 1577 1578
1551 1552 1553 1554 1555 1556 1557 1557 1558 1559 1560 1560 1561 1562 1562 1563 1564 1565 1565 1566 1566 1567 1568 1569 1570 1570 1571 1572 1572 1572 1572 1573 1573 1574 1574 1575 1575 1576 1576 1577 1578 1578 1579
1553 1554 1555 1555 1556 1557 1558 1559 1559 1560 1561 1562 1562 1563 1564 1565 1566 1567 1567 1568 1568 1569 1570 1571 1571 1572 1573 1574 1574 1574 1574 1574 1574 1575 1575 1576 1576 1577 1577 1578 1579 1579 1580
1554 1555 1556 1557 1557 1558 1559 1560 1561 1561 1562 1563 1564 1565 1566 1567 1568 1568 1569 1569 1570 1571 1571 1572 1573 1574 1575 1575 1576 1575 1575 1576 1576 1576 1576 1577 1577 1578 1578 1579 1579 1580 1581
1553 1555 1556 1557 1558 1559 1560 1561 1562 1562 1563 1564 1565 1566 1567 1568 1569 1570 1570 1571 1572 1572 1573 1574 1574 1575 1576 1576 1577 1576 1577 1577 1577 1577 1577 1578 1578 1579 1579 1580 1580 1581 1581
1553 1555 1556 1558 1559 1560 1561 1562 1563 1563 1564 1565 1566 1567 1568 1569 1570 1571 1571 1572 1573 1573 1574 1575 1575 1576 1577 1577 1577 1577 1577 1577 1577 1578 1578 1578 1579 1579 1580 1580 1581 1581 1582
1552 1554 1556 1557 1559 1560 1561 1563 1564 1564 1565 1566 1567 1568 1568 1569 1570 1571 1572 1573 1574 1574 1575 1576 1576 1577 1577 1578 1578 1578 1578 1578 1578 1578 1578 1578 1579 1579 1580 1580 1581 1581 1582
1551 1553 1555 1557 1558 1560 1561 1563 1564 1565 1566 1567 1567 1568 1569 1570 1571 1571 1572 1573 1574 1574 1575 1576 1576 1577 1577 1577 1578 1578 1578 1578 1578 1579 1579 1579 1579 1579 1580 1580 1581 1581 1582
1551 1553 1555 1557 1558 1560 1561 1563 1564 1565 1566 1567 1568 1569 1569 1570 1571 1571 1572 1573 1574 1574 1575 1576 1576 1577 1577 1577 1577 1578 1578 1578 1578 1578 1578 1579 1579 1579 1579 1580 1580 1580 1581
1550 1553 1555 1556 1558 1560 1561 1563 1564 1565 1566 1567 1567 1568 1569 1570 1571 1571 1572 1573 1573 1574 1575 1575 1575 1576 1576 1577 1577 1577 1577 1578 1578 1578 1578 1578 1578 1578 1579 1579 1579 1580 1580
1550 1552 1554 1556 1558 1559 1561 1562 1563 1564 1565 1566 1567 1568 1569 1569 1570 1571 1571 1572 1573 1573 1574 1574 1575 1575 1576 1576 1576 1576 1576 1577 1577 1577 1577 1577 1577 1577 1578 1578 1578 1579 1579
1549 1551 1553 1555 1557 1558 1560 1561 1562 1563 1564 1565 1566 1567 1568 1569 1569 1570 1571 1572 1572 1572 1573 1573 1574 1574 1574 1574 1575 1575 1575 1575 1575 1575 1575 1575 1575 1576 1576 1577 1577 1577 1577
1548 1550 1552 1554 1556 1557 1559 1560 1562 1563 1563 1564 1565 1566 1567 1568 1568 1569 1570 1571 1571 1571 1572 1572 1572 1572 1572 1573 1573 1573 1573 1573 1573 1573 1573 1573 1573 1574 1574 1574 1575 1575 1575
1546 1549 1551 1552 1554 1556 1557 1558 1560 1561 1562 1563 1564 1565 1566 1566 1567 1568 1568 1569 1569 1569 1570 1570 1570 1570 1571 1571 1571 1571 1571 1571 1571 1571 1571 1571 1571 1571 1571 1572 1572 1572 1573
1543 1546 1549 1550 1552 1554 1556 1557 1559 1560 1561 1562 1563 1563 1564 1565 1566 1566 1567 1567 1567 1567 1568 1568 1568 1568 1568 1569 1569 1569 1569 1569 1568 1568 1568 1568 1568 1568 1568 1568 1569 1569 1570
1541 1543 1546 1548 1550 1552 1554 1556 1557 1559 1559 1560 1560 1561 1562 1563 1564 1564 1565 1564 1565 1565 1565 1566 1566 1566 1566 1567 1567 1568 1567 1566 1566 1566 1565 1565 1566 1566 1566 1566 1566 1566 1566
1539 1541 1544 1546 1548 1550 1552 1553 1555 1556 1557 1557 1558 1559 1560 1561 1562 1562 1562 1562 1562 1562 1563 1563 1563 1563 1564 1564 1564 1565 1566 1565 1565 1563 1563 1563 1563 1563 1563 1563 1563 1563 1563
1537 1539 1542 1544 1546 1548 1550 1551 1553 1554 1555 1556 1557 1557 1558 1559 1559 1560 1559 1560 1560 1559 1559 1560 1560 1560 1561 1561 1561 1561 1562 1562 1562 1562 1560 1560 1560 1560 1560 1560 1560 1560 1560
1535 1537 1540 1541 1544 1546 1547 1549 1550 1551 1553 1554 1554 1555 1556 1556 1557 1557 1556 1557 1557 1556 1556 1556 1557 1557 1558 1558 1558 1558 1558 1558 1558 1558 1557 1557 1557 1557 1558 1557 1557 1557 1556